Flag Weather past 2 weeks in Owensboro, Kentucky, U.S.A.

Now
37 °F

Clear.


Feels Like: N/A
Forecast: 35 / 56 °F
Wind: N/A

Location: Owensboro / Daviess

Current Time: Nov 28, 2014 at 11:37:33 PM

Latest Report: Nov 28, 2014 at 10:56 PM


Visibility: 10 mi

Pressure: 30.06 "Hg

Humidity: 70%

Dew point: 28 °F

Location of OwensboroLocation

Historic Weather in Owensboro — Graph

°F

Owensboro temperature yesterday

Maximum temperature yesterday: 33 °F (at 12:56 AM)
Minimum temperature yesterday: 23 °F (at 11:56 PM)
Average temperature yesterday: 30 °F

Past Weeks' High & Low Weather Summary

 TemperatureHumidityPressure
High65 °F (Nov 22, 2:56 PM)100% (Nov 16, 11:56 PM)30.52 "Hg (Nov 16, 11:56 PM)
Low10 °F (Nov 18, 4:56 AM)35% (Nov 15, 12:56 PM)29.27 "Hg (Nov 23, 7:56 PM)
Average35 °F72%30.16 "Hg
* Reported Nov 13 9:56 PM — Nov 28 9:56 PM, Owensboro, Weather by CustomWeather, © 2014

Note: Actual official high and low records may vary slightly from our data, if they occured in-between our weather recording intervals... More about our weather records

Advertising

Owensboro weather history for previous 24 hours

 ConditionsComfort  
Time TempWeatherWind HumidityBarometerVisibility
9:56 PM
Nov 28
35 °FClear.8 mph73%30.06 "Hg10 mi
8:56 PM37 °FClear.9 mph68%30.07 "Hg10 mi
7:56 PM38 °FClear.13 mph65%30.09 "Hg10 mi
6:56 PM38 °FClear.10 mph65%30.11 "Hg10 mi
5:56 PM38 °FClear.14 mph65%30.12 "Hg10 mi
4:56 PM40 °FClear.12 mph60%30.14 "Hg10 mi
3:56 PM42 °FSunny.14 mph56%30.16 "Hg10 mi
2:56 PM43 °FSunny.13 mph56%30.18 "Hg10 mi
1:56 PM42 °FSunny.17 mph56%30.21 "Hg10 mi
12:56 PM41 °FSunny.12 mph58%30.26 "Hg10 mi
11:56 AM38 °FSunny.14 mph65%30.31 "Hg10 mi
10:56 AM36 °FSunny.14 mph67%30.36 "Hg10 mi
9:56 AM33 °FSunny.16 mph73%30.40 "Hg7 mi
8:56 AM31 °FSunny.14 mph79%30.41 "Hg7 mi
7:56 AM28 °FIce fog.9 mph89%30.42 "Hg5 mi
6:56 AM27 °FIce fog.6 mph93%30.44 "Hg4 mi
5:56 AM27 °FClear.7 mph93%30.44 "Hg7 mi
4:56 AM26 °FClear.N/A96%30.45 "Hg7 mi
3:56 AM26 °FClear.N/A88%30.45 "Hg8 mi
2:56 AM25 °FClear.N/A91%30.46 "Hg8 mi
1:56 AM23 °FLight snow. Clear.N/A92%30.47 "Hg8 mi
12:56 AM21 °FClear.N/A92%30.46 "Hg7 mi
11:56 PM
Nov 27
23 °FLight snow. Clear.N/A92%30.47 "Hg8 mi
Weather by CustomWeather, © 2014

See weather overviewHow to use our weather pages